Regional Weather Roundup
Issued by NWS

Home | Current Version | Previous Version | Text Only | Print | Product List | Glossary On
Versions: 1 2 3 4 5 6 7 8 9 10 11 12 13 14 15 16 17 18 19 20 21 22 23 24 25 26 27 28 29 30 31 32 33 34 35 36 37 38 39 40 41 42 43 44 45 46 47 48 49 50
914
ASUS43 KLMK 221302
RWRKY
KENTUCKY REGIONAL WEATHER ROUNDUP
NATIONAL WEATHER SERVICE LOUISVILLE KY
900 AM EDT FRI SEP 22 2017

NOTE "FAIR" INDICATES FEW OR NO CLOUDS BELOW 12,000 FEET
WITH NO SIGNIFICANT WEATHER AND/OR OBSTRUCTIONS TO VISIBILITY.

KYZ001>023-026-027-061>063-070>075-221400-
WESTERN AND SOUTH CENTRAL KENTUCKY

CITY           SKY/WX    TMP DP  RH WIND       PRES   REMARKS
PADUCAH        SUNNY     71  68  90 CALM      30.06S
HENDERSON      SUNNY     72  70  93 CALM      30.09R
OWENSBORO      SUNNY     74  70  87 VRB3      30.09R
HOPKINSVILLE   NOT AVBL
BOWLING GREEN  SUNNY     71  70  96 CALM      30.10R
GLASGOW        SUNNY    N/A N/A N/A CALM      30.11S
$$

KYZ024-025-028>034-038-045-046-053-221400-
NORTH CENTRAL KENTUCKY

CITY           SKY/WX    TMP DP  RH WIND       PRES   REMARKS
LOUISVILLE/SDF MOSUNNY   76  70  82 CALM      30.10S HAZE
LOUISVILLE/LOU SUNNY     74  71  91 CALM      30.11S FOG
FORT KNOX      MOSUNNY   72  72 100 NE2       30.09S
$$

KYZ035>037-039>044-047>052-055>060-089>105-221400-
NORTHEAST KENTUCKY

CITY           SKY/WX    TMP DP  RH WIND       PRES   REMARKS
LEXINGTON      SUNNY     72  67  84 NE3       30.13S HAZE
COVINGTON      MOSUNNY   74  71  91 CALM      30.13R
FRANKFORT      SUNNY     72  67  84 CALM      30.12R
$$

KYZ054-064>069-076>088-106>120-221400-
SOUTHEAST KENTUCKY

CITY           SKY/WX    TMP DP  RH WIND       PRES   REMARKS
JACKSON        SUNNY     69  66  90 CALM      30.14S
LONDON         SUNNY     68  65  90 NE3       30.13S
SOMERSET       SUNNY     64  64 100 CALM      30.14S
MIDDLESBORO    CLOUDY    63  63 100 CALM      30.16R FOG
MONTICELLO     FOG       65  65 100 W7        30.14S VSB 1/4
$$





USA.gov is the U.S. government's official web portal to all federal, state and local government web resources and services.